Location: Carrizo Plain National Monument
(35.0903°N, 119.7316°W)
Time: 11:43:20
(UTC-08:00)

N. Korean satellite - Visible Passes

Search period start: 21 January 2020 00:00
Search period end: 31 January 2020 00:00
Orbit: 454 x 507 km, 97.2° (Epoch: 21 January)

Date Brightness Start Highest point End Pass type
(mag) Time Alt. Az. Time Alt. Az. Time Alt. Az.
21 Jan 6.4 05:47:26 10° N 05:50:59 84° WNW 05:54:36 10° SSW visible
21 Jan 9.7 17:54:06 10° SW 17:56:25 17° W 17:58:45 10° NW visible
22 Jan 8.0 05:22:07 10° NNE 05:25:30 39° E 05:28:54 10° S visible
23 Jan 9.5 04:57:24 10° NE 04:59:55 18° E 05:02:27 10° SE visible
23 Jan 7.8 06:30:28 10° NNW 06:33:12 21° WNW 06:35:58 10° WSW visible
24 Jan 6.8 06:04:24 10° N 06:07:50 46° WNW 06:11:19 10° SSW visible
25 Jan 6.8 05:38:48 10° NNE 05:42:23 73° E 05:46:01 10° S visible
25 Jan 9.4 17:45:02 10° SSW 17:47:45 22° W 17:50:29 10° NW visible
26 Jan 8.6 05:13:39 10° NE 05:16:52 30° E 05:20:07 10° SSE visible
27 Jan 9.8 04:49:14 10° ENE 04:51:15 14° E 04:53:17 10° SE visible
27 Jan 7.5 06:21:33 10° NNW 06:24:38 27° WNW 06:27:45 10° SW visible
28 Jan 6.5 05:55:40 10° N 05:59:15 62° WNW 06:02:51 10° SSW visible
28 Jan 9.9 18:03:00 10° WSW 18:04:41 13° W 18:06:22 10° WNW visible
29 Jan 7.4 05:30:12 10° NNE 05:33:46 54° E 05:37:21 10° S visible
30 Jan 9.1 05:05:13 10° NE 05:08:13 24° E 05:11:13 10° SSE visible
